Quad City International Airport (MLI)


Airport Diagram
Current Weather/Forecast (VFR Conditions)
METAR KMLI 201552Z 20006KT 10SM CLR M08/M13 A3020 RMK AO2 SLP238 T10781133
TAF KMLI 201120Z 2012/2112 28005KT P6SM SKC FM201800 20015G25KT P6SM SCT250 FM210100 23012KT P6SM BKN250

All Charts
General
Chart Name Download
AIRPORT DIAGRAM
TAKEOFF MINIMUMS
ALTERNATE MINIMUMS
HOT SPOT

Approaches
Chart Name Download
ILS OR LOC RWY 09
ILS OR LOC RWY 27
RNAV (GPS) RWY 09
RNAV (GPS) RWY 13
RNAV (GPS) RWY 27
RNAV (GPS) RWY 31